Date String (YYYY-MM-DD hh:mm:ss) UTC,Instrument flags,absolute air pressure of the measurement (hPa),sample flow rate (lpm),inlet stack bypass flow (lpm),air temperature of the measurement (°C),ambient temperature measured by the external sensor (°C),aerosol sample conditioner tube jacket temperature (°C),OPC LED temperature (°C),internal box temperature (°C),relative humidity of the measurement (%),span deviation,mass concentration of particles derived from Lorenz-Mie calculation of OPC scattering (μg/m³),mass concentration of particles derived from Lorenz-Mie calculation of OPC scattering (μg/m³),mass concentration of particles derived from Lorenz-Mie calculation of OPC scattering (μg/m³)
DateTimeUTC,F1_M11,P_M11,Q1_M11,Q2_M11,T1_M11,T2_M11,T3_M11,T4_M11,T5_M11,U1_M11,ZSPAN_M11,X0_M11,X2_M11,X1_M11
2023-09-24 14:00:00,SystemResetWarning,0832.6,5.00,000.00,028.0,026.5,000.0,036.4,029.6,12.3,0000.0,0009.53,0003.78,0003.25
2023-09-24 14:01:00,SystemResetWarning,0832.5,5.00,000.00,028.0,026.5,000.0,036.4,029.6,12.3,0000.0,0010.03,0003.81,0003.27
2023-09-24 14:02:00,SystemResetWarning,0832.5,4.99,000.00,028.0,026.5,000.0,036.4,029.6,12.6,0000.0,0010.41,0003.86,0003.28
2023-09-24 14:03:00,SystemResetWarning,0832.5,5.00,000.00,028.0,026.5,000.0,036.4,029.6,12.4,0000.0,0010.63,0003.88,0003.28
2023-09-24 14:04:00,SystemResetWarning,0832.5,5.00,000.00,028.0,026.5,000.0,036.4,029.6,12.3,0000.0,0010.48,0003.89,0003.29
2023-09-24 14:05:00,SystemResetWarning,0832.5,5.00,000.00,028.0,026.5,000.0,036.4,029.6,12.3,0000.0,0009.83,0003.86,0003.28
2023-09-24 14:06:00,SystemResetWarning,0832.6,5.00,000.00,028.0,026.5,000.0,036.4,029.6,12.4,0000.0,0009.79,0003.85,0003.29
2023-09-24 14:07:00,SystemResetWarning,0832.6,5.00,000.00,028.1,026.5,000.0,036.4,029.6,12.6,0000.0,0009.57,0003.84,0003.30
2023-09-24 14:08:00,SystemResetWarning,0832.6,5.00,000.00,028.1,026.5,000.0,036.4,029.6,12.3,0000.0,0009.63,0003.86,0003.30
2023-09-24 14:09:00,SystemResetWarning,0832.6,5.01,000.00,028.1,026.5,000.0,036.4,029.6,12.2,0000.0,0009.78,0003.87,0003.30
2023-09-24 14:10:00,SystemResetWarning,0832.6,5.00,000.00,028.1,026.5,000.0,036.4,029.6,12.6,0000.0,0009.34,0003.86,0003.29
2023-09-24 14:11:00,SystemResetWarning,0832.6,4.99,000.00,028.1,026.5,000.0,036.4,029.6,12.7,0000.0,0009.69,0003.85,0003.28
2023-09-24 14:12:00,SystemResetWarning,0832.6,4.99,000.00,028.1,026.5,000.0,036.4,029.6,12.8,0000.0,0009.72,0003.85,0003.28
2023-09-24 14:13:00,SystemResetWarning,0832.7,5.00,000.00,028.0,026.5,000.0,036.4,029.6,12.7,0000.0,0009.59,0003.84,0003.28
2023-09-24 14:14:00,SystemResetWarning,0832.6,5.01,000.00,028.0,026.5,000.0,036.4,029.6,12.6,0000.0,0009.83,0003.83,0003.29
2023-09-24 14:15:00,SystemResetWarning,0832.6,5.01,000.00,028.0,026.5,000.0,036.4,029.6,12.9,0000.0,0009.88,0003.81,0003.29
2023-09-24 14:16:00,SystemResetWarning,0832.7,5.00,000.00,028.0,026.5,000.0,036.4,029.6,12.5,0000.0,0009.86,0003.82,0003.29
2023-09-24 14:17:00,SystemResetWarning,0832.7,5.00,000.00,028.0,026.5,000.0,036.4,029.6,12.3,0000.0,0009.52,0003.85,0003.29
2023-09-24 14:18:00,SystemResetWarning,0832.6,5.00,000.00,028.0,026.5,000.0,036.4,029.5,12.2,0000.0,0009.48,0003.84,0003.28
2023-09-24 14:19:00,SystemResetWarning,0832.7,4.99,000.00,028.0,026.4,000.0,036.4,029.5,11.9,0000.0,0010.43,0003.81,0003.27
2023-09-24 14:20:00,SystemResetWarning,0832.7,4.99,000.00,028.0,026.4,000.0,036.4,029.5,12.0,0000.0,0010.35,0003.77,0003.27
2023-09-24 14:21:00,SystemResetWarning,0832.7,5.01,000.00,028.0,026.4,000.0,036.4,029.5,11.8,0000.0,0010.16,0003.77,0003.27
2023-09-24 14:22:00,SystemResetWarning,0832.7,5.01,000.00,028.0,026.4,000.0,036.4,029.5,11.8,0000.0,0009.66,0003.77,0003.28
2023-09-24 14:23:00,SystemResetWarning,0832.7,4.99,000.00,028.0,026.4,000.0,036.4,029.5,12.0,0000.0,0009.13,0003.78,0003.29
2023-09-24 14:24:00,SystemResetWarning,0832.7,5.00,000.00,028.0,026.4,000.0,036.4,029.5,11.8,0000.0,0008.91,0003.76,0003.29
2023-09-24 14:25:00,SystemResetWarning,0832.7,5.00,000.00,028.0,026.4,000.0,036.4,029.5,11.8,0000.0,0008.24,0003.74,0003.28
2023-09-24 14:26:00,SystemResetWarning,0832.7,4.99,000.00,028.0,026.4,000.0,036.4,029.5,11.7,0000.0,0008.39,0003.72,0003.28
2023-09-24 14:27:00,SystemResetWarning,0832.7,5.00,000.00,028.0,026.4,000.0,036.4,029.5,12.0,0000.0,0008.52,0003.75,0003.28
2023-09-24 14:28:00,SystemResetWarning,0832.7,5.00,000.00,028.0,026.5,000.0,036.4,029.6,12.2,0000.0,0008.56,0003.74,0003.29
2023-09-24 14:29:00,SystemResetWarning,0832.8,5.00,000.00,028.0,026.5,000.0,036.4,029.6,12.0,0000.0,0008.67,0003.76,0003.30
2023-09-24 14:30:00,SystemResetWarning,0832.7,5.00,000.00,028.0,026.5,000.0,036.4,029.6,12.0,0000.0,0007.88,0003.79,0003.32
2023-09-24 14:31:00,SystemResetWarning,0832.8,5.01,000.00,028.0,026.5,000.0,036.4,029.6,12.2,0000.0,0008.08,0003.84,0003.32
2023-09-24 14:32:00,SystemResetWarning,0832.8,5.00,000.00,028.1,026.6,000.0,036.4,029.6,12.2,0000.0,0008.47,0003.85,0003.32
2023-09-24 14:33:00,SystemResetWarning,0832.8,5.00,000.00,028.1,026.6,000.0,036.4,029.7,12.5,0000.0,0008.50,0003.85,0003.32
2023-09-24 14:34:00,SystemResetWarning,0832.8,5.00,000.00,028.1,026.6,000.0,036.4,029.7,12.6,0000.0,0009.14,0003.83,0003.32
2023-09-24 14:35:00,SystemResetWarning,0833.0,5.00,000.00,028.1,026.6,000.0,036.4,029.7,12.4,0000.0,0009.24,0003.84,0003.32
2023-09-24 14:36:00,SystemResetWarning,0832.9,5.00,000.00,028.1,026.6,000.0,036.4,029.7,12.1,0000.0,0009.24,0003.84,0003.32
2023-09-24 14:37:00,SystemResetWarning,0833.1,5.00,000.00,028.1,026.6,000.0,036.4,029.7,12.3,0000.0,0008.87,0003.83,0003.32
2023-09-24 14:38:00,SystemResetWarning,0833.2,4.99,000.00,028.1,026.6,000.0,036.4,029.7,12.0,0000.0,0008.75,0003.81,0003.33
2023-09-24 14:39:00,SystemResetWarning,0833.2,4.99,000.00,028.1,026.7,000.0,036.4,029.7,12.7,0000.0,0008.52,0003.76,0003.32
2023-09-24 14:40:00,SystemResetWarning,0833.0,5.00,000.00,028.1,026.7,000.0,036.4,029.7,13.1,0000.0,0008.41,0003.77,0003.32
2023-09-24 14:41:00,SystemResetWarning,0832.9,4.99,000.00,028.1,026.7,000.0,036.4,029.7,13.1,0000.0,0008.20,0003.78,0003.31
2023-09-24 14:42:00,SystemResetWarning,0833.0,5.00,000.00,028.1,026.7,000.0,036.4,029.7,13.4,0000.0,0008.01,0003.74,0003.31
2023-09-24 14:43:00,SystemResetWarning,0833.0,5.00,000.00,028.2,026.7,000.0,036.4,029.7,13.3,0000.0,0007.46,0003.69,0003.31
2023-09-24 14:44:00,SystemResetWarning,0833.0,5.00,000.00,028.2,026.7,000.0,036.4,029.8,13.3,0000.0,0007.38,0003.68,0003.31
2023-09-24 14:45:00,SystemResetWarning,0833.0,5.00,000.00,028.2,026.7,000.0,036.4,029.8,13.3,0000.0,0006.45,0003.69,0003.32
2023-09-24 14:46:00,SystemResetWarning,0833.0,5.01,000.00,028.2,026.7,000.0,036.5,029.8,13.2,0000.6,0005.99,0003.66,0003.30
2023-09-24 14:47:00,SystemResetWarning,0832.9,5.01,000.00,028.2,026.7,000.0,036.5,029.8,13.2,0002.3,0006.14,0003.69,0003.30
2023-09-24 14:48:00,SystemResetWarning,0833.3,4.99,000.00,028.2,026.8,000.0,036.5,029.8,13.0,0002.2,0006.26,0003.70,0003.30
2023-09-24 14:49:00,SystemResetWarning,0833.3,4.98,000.00,028.2,026.8,000.0,036.5,029.8,13.5,0002.5,0006.30,0003.71,0003.30
2023-09-24 14:50:00,SystemResetWarning,0833.2,5.01,000.00,028.2,026.8,000.0,036.5,029.8,12.8,0002.4,0006.39,0003.73,0003.30
2023-09-24 14:51:00,SystemResetWarning,0833.1,5.01,000.00,028.2,026.8,000.0,036.5,029.8,13.4,0002.3,0006.37,0003.73,0003.30
2023-09-24 14:52:00,SystemResetWarning,0833.0,4.99,000.00,028.2,026.8,000.0,036.5,029.8,12.5,0001.8,0006.69,0003.74,0003.29
2023-09-24 14:53:00,SystemResetWarning,0833.1,5.00,000.00,028.2,026.8,000.0,036.5,029.8,12.5,0001.3,0006.99,0003.77,0003.29
2023-09-24 14:54:00,SystemResetWarning,0833.0,5.01,000.00,028.2,026.8,000.0,036.5,029.8,12.9,0001.5,0007.11,0003.82,0003.30
2023-09-24 14:55:00,SystemResetWarning,0833.0,5.01,000.00,028.2,026.8,000.0,036.5,029.8,13.3,0002.2,0007.15,0003.83,0003.30
2023-09-24 14:56:00,SystemResetWarning,0833.1,4.99,000.00,028.3,026.8,000.0,036.5,029.9,13.4,0002.8,0007.21,0003.83,0003.29
2023-09-24 14:57:00,SystemResetWarning,0833.0,4.99,000.00,028.3,026.8,000.0,036.5,029.8,13.2,0002.7,0007.10,0003.81,0003.29
2023-09-24 14:58:00,SystemResetWarning,0833.2,5.00,000.00,028.3,026.8,000.0,036.5,029.9,13.4,0002.9,0007.00,0003.81,0003.30
2023-09-24 14:59:00,SystemResetWarning,0833.0,5.01,000.00,028.3,026.8,000.0,036.5,029.9,13.4,0003.0,0006.83,0003.78,0003.29
